AWQ521 VTBD-WIII

Flight info

Callsign AWQ521
Flight time N/A
Altitude 35000
Route KIGOB3A KIGOB Y11 PASVA Y514 BEKSO/N0460F370 Y514 NUFFA DCT BIKTA B469 VMR B338 ANITO B470 BUNIK
Aircraft A320/M-SDE3FGHIRWY/LB1

Departure

Time 2026-04-29 13:54
Airport Don Mueang International Airport (VTBD)

Arrival

Time N/A
Airport Soekarno-Hatta International Airport (WIII)
Time Latitude Longitude Altitude Speed Heading
2026-04-29 13:41 13.92070 100.60563 17 ft 0 kts 208°
2026-04-29 13:42 13.92076 100.60567 19 ft 3 kts 208°
2026-04-29 13:42 13.92095 100.60577 19 ft 3 kts 205°
2026-04-29 13:43 13.92115 100.60586 20 ft 3 kts 207°
2026-04-29 13:43 13.92133 100.60597 21 ft 3 kts 235°
2026-04-29 13:43 13.92136 100.60611 22 ft 3 kts 298°
2026-04-29 13:43 13.92126 100.60631 19 ft 3 kts 300°
2026-04-29 13:44 13.92115 100.60649 18 ft 3 kts 310°
2026-04-29 13:44 13.92100 100.60662 18 ft 3 kts 359°
2026-04-29 13:44 13.92083 100.60657 18 ft 3 kts 28°
2026-04-29 13:44 13.92064 100.60646 19 ft 3 kts 28°
2026-04-29 13:45 13.92045 100.60635 21 ft 3 kts 28°
2026-04-29 13:45 13.92026 100.60625 20 ft 3 kts 28°
2026-04-29 13:45 13.92009 100.60615 19 ft 1 kts 28°
2026-04-29 13:45 13.92008 100.60615 19 ft 0 kts 28°
2026-04-29 13:48 13.92012 100.60617 19 ft 2 kts 28°
2026-04-29 13:48 13.92035 100.60630 21 ft 5 kts 28°
2026-04-29 13:48 13.92076 100.60653 19 ft 7 kts 32°
2026-04-29 13:48 13.92086 100.60702 18 ft 8 kts 98°
2026-04-29 13:49 13.92112 100.60757 18 ft 11 kts 30°
2026-04-29 13:49 13.92178 100.60795 20 ft 11 kts 28°
2026-04-29 13:49 13.92245 100.60833 18 ft 11 kts 29°
2026-04-29 13:49 13.92315 100.60872 18 ft 12 kts 28°
2026-04-29 13:50 13.92392 100.60916 17 ft 14 kts 28°
2026-04-29 13:50 13.92485 100.60967 17 ft 17 kts 28°
2026-04-29 13:50 13.92586 100.61023 17 ft 15 kts 27°
2026-04-29 13:50 13.92648 100.61091 17 ft 13 kts 97°
2026-04-29 13:51 13.92607 100.61173 16 ft 13 kts 114°
2026-04-29 13:51 13.92575 100.61206 16 ft 6 kts 200°
2026-04-29 13:51 13.92569 100.61203 16 ft 0 kts 207°
2026-04-29 13:51 13.92568 100.61202 16 ft 0 kts 207°
2026-04-29 13:53 13.92381 100.61100 17 ft 66 kts 211°
2026-04-29 13:53 13.91790 100.60766 16 ft 125 kts 208°
2026-04-29 13:53 13.91220 100.60448 17 ft 155 kts 209°
2026-04-29 13:53 13.89834 100.59649 513 ft 175 kts 207°
2026-04-29 13:54 13.88769 100.59059 1153 ft 176 kts 206°
2026-04-29 13:54 13.87638 100.58447 1480 ft 192 kts 205°
2026-04-29 13:54 13.86527 100.57587 1872 ft 216 kts 230°
2026-04-29 13:54 13.85839 100.56113 2223 ft 242 kts 248°
2026-04-29 13:55 13.85356 100.54365 2582 ft 264 kts 253°
2026-04-29 13:55 13.85073 100.53102 3020 ft 269 kts 255°
2026-04-29 13:55 13.84660 100.51210 3765 ft 274 kts 255°
2026-04-29 13:55 13.84219 100.49317 4539 ft 276 kts 253°
2026-04-29 13:56 13.83355 100.47534 5287 ft 278 kts 230°
2026-04-29 13:56 13.82083 100.46062 6060 ft 280 kts 227°
2026-04-29 13:56 13.80743 100.44592 6801 ft 283 kts 226°
2026-04-29 13:56 13.79353 100.43146 7517 ft 286 kts 219°
2026-04-29 13:57 13.77610 100.42163 8210 ft 290 kts 196°
2026-04-29 13:57 13.75601 100.41954 8919 ft 293 kts 175°
2026-04-29 13:57 13.73562 100.42152 9666 ft 296 kts 174°
2026-04-29 13:57 13.71500 100.42355 10252 ft 304 kts 174°
2026-04-29 13:58 13.69315 100.42569 10410 ft 327 kts 175°
2026-04-29 13:58 13.66974 100.42796 10549 ft 348 kts 175°
2026-04-29 13:58 13.64518 100.43031 10964 ft 358 kts 175°
2026-04-29 13:58 13.62026 100.43268 11554 ft 362 kts 175°
2026-04-29 13:59 13.59514 100.43563 12167 ft 365 kts 169°
2026-04-29 13:59 13.57084 100.44348 12777 ft 369 kts 156°
2026-04-29 13:59 13.54881 100.45707 13385 ft 373 kts 142°
2026-04-29 13:59 13.53026 100.47588 13952 ft 377 kts 129°
2026-04-29 14:00 13.51462 100.49764 14460 ft 381 kts 127°
2026-04-29 14:00 13.49891 100.51969 14974 ft 384 kts 127°
2026-04-29 14:00 13.48305 100.54186 15469 ft 387 kts 128°
2026-04-29 14:00 13.46697 100.56427 15964 ft 391 kts 128°
2026-04-29 14:01 13.45098 100.58655 16444 ft 394 kts 127°
2026-04-29 14:01 13.43443 100.60960 16930 ft 398 kts 128°
2026-04-29 14:01 13.41817 100.63226 17416 ft 401 kts 128°
2026-04-29 14:01 13.40161 100.65538 17881 ft 404 kts 128°
2026-04-29 14:02 13.38276 100.67727 18323 ft 405 kts 138°
2026-04-29 14:02 13.36078 100.69490 18724 ft 406 kts 149°
2026-04-29 14:02 13.33664 100.71009 19143 ft 408 kts 150°
2026-04-29 14:02 13.31243 100.72531 19581 ft 410 kts 150°
2026-04-29 14:03 13.28805 100.74069 19999 ft 412 kts 149°
2026-04-29 14:03 13.26362 100.75617 20418 ft 414 kts 149°
2026-04-29 14:03 13.23903 100.77179 20825 ft 416 kts 149°
2026-04-29 14:03 13.21438 100.78747 21232 ft 419 kts 149°
2026-04-29 14:04 13.18954 100.80327 21635 ft 421 kts 149°
2026-04-29 14:04 13.16461 100.81909 22033 ft 423 kts 149°
2026-04-29 14:04 13.13947 100.83501 22423 ft 425 kts 149°
2026-04-29 14:04 13.11406 100.84990 22811 ft 427 kts 156°
2026-04-29 14:05 13.08597 100.86090 23183 ft 428 kts 163°
2026-04-29 14:05 13.05787 100.87019 23532 ft 431 kts 163°
2026-04-29 14:05 13.02930 100.87966 23836 ft 433 kts 162°
2026-04-29 14:05 13.00055 100.88924 24136 ft 435 kts 162°
2026-04-29 14:06 12.97170 100.89886 24415 ft 438 kts 162°
2026-04-29 14:06 12.94255 100.90857 24711 ft 440 kts 162°
2026-04-29 14:06 12.91338 100.91829 24986 ft 443 kts 162°
2026-04-29 14:06 12.88402 100.92808 25251 ft 446 kts 162°
2026-04-29 14:07 12.85443 100.93796 25538 ft 448 kts 162°
2026-04-29 14:07 12.82466 100.94788 25803 ft 451 kts 162°
2026-04-29 14:07 12.79477 100.95782 26063 ft 453 kts 162°
2026-04-29 14:07 12.76464 100.96785 26349 ft 456 kts 162°
2026-04-29 14:08 12.73440 100.97790 26618 ft 459 kts 162°
2026-04-29 14:08 12.70391 100.98803 26885 ft 462 kts 162°
2026-04-29 14:08 12.67333 100.99821 27141 ft 464 kts 162°
2026-04-29 14:08 12.64241 101.00815 27399 ft 467 kts 163°
2026-04-29 14:09 12.61111 101.01743 27653 ft 469 kts 165°
2026-04-29 14:09 12.57960 101.02623 27901 ft 471 kts 165°
2026-04-29 14:09 12.54781 101.03491 28142 ft 474 kts 165°
2026-04-29 14:09 12.51593 101.04360 28371 ft 476 kts 165°
2026-04-29 14:10 12.48385 101.05244 28619 ft 478 kts 165°
2026-04-29 14:10 12.45167 101.06147 28858 ft 480 kts 165°
2026-04-29 14:10 12.41946 101.07065 29096 ft 482 kts 165°
2026-04-29 14:10 12.38711 101.07986 29332 ft 484 kts 166°
2026-04-29 14:11 12.35390 101.08596 29559 ft 485 kts 175°
2026-04-29 14:11 12.32018 101.08705 29889 ft 484 kts 181°
2026-04-29 14:11 12.28700 101.08675 30179 ft 484 kts 181°
2026-04-29 14:11 12.25334 101.08645 30476 ft 483 kts 181°
2026-04-29 14:12 12.21982 101.08618 30788 ft 482 kts 181°
2026-04-29 14:12 12.18630 101.08593 31104 ft 481 kts 181°
2026-04-29 14:12 12.15287 101.08568 31419 ft 479 kts 181°
2026-04-29 14:12 12.11951 101.08545 31741 ft 478 kts 181°
2026-04-29 14:13 12.08629 101.08522 32050 ft 477 kts 181°
2026-04-29 14:13 12.05306 101.08500 32367 ft 477 kts 182°
2026-04-29 14:13 12.01998 101.08477 32682 ft 476 kts 182°
2026-04-29 14:13 11.98688 101.08451 32989 ft 475 kts 182°
2026-04-29 14:14 11.95384 101.08422 33298 ft 474 kts 182°
2026-04-29 14:14 11.92092 101.08394 33596 ft 473 kts 182°
2026-04-29 14:14 11.88796 101.08367 33898 ft 473 kts 182°
2026-04-29 14:14 11.85506 101.08341 34166 ft 472 kts 182°
2026-04-29 14:15 11.82228 101.08318 34425 ft 471 kts 182°
2026-04-29 14:15 11.78945 101.08295 34683 ft 471 kts 182°
2026-04-29 14:15 11.75669 101.08272 34849 ft 472 kts 182°
2026-04-29 14:15 11.72384 101.08247 34891 ft 472 kts 182°
2026-04-29 14:16 11.65858 101.08199 34891 ft 472 kts 181°
2026-04-29 14:16 11.59328 101.09079 34890 ft 475 kts 171°
2026-04-29 14:17 11.52818 101.10290 34889 ft 476 kts 172°
2026-04-29 14:17 11.46297 101.11491 34890 ft 476 kts 172°
2026-04-29 14:18 11.39774 101.12703 34889 ft 477 kts 171°
2026-04-29 14:18 11.33248 101.13917 34885 ft 477 kts 171°
2026-04-29 14:19 11.26710 101.15133 34892 ft 477 kts 171°
2026-04-29 14:19 11.20166 101.16342 34886 ft 478 kts 171°
2026-04-29 14:20 11.13626 101.17553 34890 ft 478 kts 171°
2026-04-29 14:20 11.07125 101.18758 34886 ft 478 kts 171°
2026-04-29 14:21 11.00576 101.19977 34886 ft 479 kts 171°
2026-04-29 14:21 10.94016 101.21196 34889 ft 479 kts 171°
2026-04-29 14:22 10.87462 101.22406 34894 ft 479 kts 171°
2026-04-29 14:22 10.80898 101.23611 34894 ft 479 kts 171°
2026-04-29 14:23 10.74343 101.24818 34893 ft 479 kts 171°
2026-04-29 14:23 10.67827 101.26023 34900 ft 479 kts 171°
2026-04-29 14:24 10.61205 101.27246 34899 ft 479 kts 171°
2026-04-29 14:24 10.54712 101.28447 34900 ft 479 kts 171°
2026-04-29 14:25 10.48158 101.29654 34898 ft 479 kts 171°
2026-04-29 14:25 10.41598 101.30873 34902 ft 479 kts 171°
2026-04-29 14:26 10.35044 101.32088 34898 ft 479 kts 171°
2026-04-29 14:26 10.28524 101.33288 34898 ft 479 kts 171°
2026-04-29 14:27 10.21957 101.34496 34893 ft 479 kts 171°
2026-04-29 14:28 10.12113 101.36322 34895 ft 479 kts 171°
2026-04-29 14:28 10.05547 101.37545 34894 ft 480 kts 171°
2026-04-29 14:29 9.98977 101.38761 34891 ft 480 kts 171°
2026-04-29 14:29 9.92400 101.39977 34893 ft 480 kts 171°
2026-04-29 14:30 9.85818 101.41187 34893 ft 481 kts 171°
2026-04-29 14:30 9.79234 101.42398 34888 ft 481 kts 171°
2026-04-29 14:31 9.72648 101.43620 34894 ft 481 kts 171°
2026-04-29 14:31 9.66057 101.44840 34895 ft 482 kts 171°
2026-04-29 14:32 9.59460 101.46055 34897 ft 482 kts 171°
2026-04-29 14:32 9.52859 101.47277 34893 ft 482 kts 171°
2026-04-29 14:33 9.46246 101.48500 34907 ft 483 kts 171°
2026-04-29 14:33 9.39634 101.49717 34910 ft 483 kts 171°
2026-04-29 14:34 9.33056 101.50922 34908 ft 483 kts 171°
2026-04-29 14:34 9.26441 101.52134 34909 ft 483 kts 171°
2026-04-29 14:35 9.19828 101.53357 34906 ft 483 kts 171°
2026-04-29 14:35 9.13209 101.54573 34906 ft 483 kts 171°
2026-04-29 14:36 9.06583 101.55789 34908 ft 484 kts 171°
2026-04-29 14:36 8.99961 101.57004 34906 ft 484 kts 171°
2026-04-29 14:37 8.93332 101.58229 34908 ft 484 kts 171°
2026-04-29 14:37 8.86711 101.59450 34909 ft 484 kts 171°
2026-04-29 14:38 8.80095 101.60665 34909 ft 484 kts 171°
2026-04-29 14:38 8.73465 101.61879 34910 ft 484 kts 171°
2026-04-29 14:39 8.66841 101.63099 34914 ft 484 kts 171°
2026-04-29 14:39 8.60255 101.64314 34912 ft 484 kts 171°
2026-04-29 14:40 8.53589 101.65539 34913 ft 483 kts 171°
2026-04-29 14:40 8.46971 101.66762 34915 ft 483 kts 171°
2026-04-29 14:41 8.40395 101.67972 34914 ft 483 kts 171°
2026-04-29 14:41 8.33782 101.69192 34917 ft 483 kts 171°
2026-04-29 14:42 8.27168 101.70401 34917 ft 483 kts 171°
2026-04-29 14:42 8.20552 101.71602 34918 ft 483 kts 171°
2026-04-29 14:43 8.13936 101.72808 34922 ft 483 kts 171°
2026-04-29 14:43 8.07325 101.74034 34923 ft 483 kts 171°
2026-04-29 14:44 8.00715 101.75256 34926 ft 483 kts 171°
2026-04-29 14:44 7.94103 101.76479 34927 ft 482 kts 170°
2026-04-29 14:45 7.87507 101.77700 34928 ft 482 kts 170°
2026-04-29 14:45 7.82026 101.78709 34929 ft 482 kts 170°
2026-04-29 14:46 7.74322 101.80134 34928 ft 481 kts 170°
2026-04-29 14:46 7.68850 101.81151 34931 ft 481 kts 170°
2026-04-29 14:47 7.62277 101.82370 34930 ft 480 kts 170°
2026-04-29 14:47 7.55709 101.83582 34930 ft 480 kts 170°
2026-04-29 14:48 7.49147 101.84792 34928 ft 479 kts 170°
2026-04-29 14:48 7.42579 101.86006 34927 ft 479 kts 170°
2026-04-29 14:49 7.36076 101.87203 34929 ft 478 kts 170°
2026-04-29 14:49 7.29538 101.88407 34925 ft 478 kts 169°
2026-04-29 14:50 7.23003 101.89623 34918 ft 478 kts 169°
2026-04-29 14:50 7.16463 101.90837 34918 ft 477 kts 169°
2026-04-29 14:51 7.09920 101.92046 34920 ft 477 kts 169°
2026-04-29 14:51 7.03382 101.93250 34919 ft 478 kts 169°
2026-04-29 14:52 6.96833 101.94454 34923 ft 478 kts 169°
2026-04-29 14:52 6.90327 101.95654 34923 ft 478 kts 169°
2026-04-29 14:53 6.83780 101.96857 34922 ft 478 kts 169°
2026-04-29 14:53 6.77230 101.98054 34921 ft 478 kts 169°
2026-04-29 14:54 6.70675 101.99265 34918 ft 478 kts 169°
2026-04-29 14:54 6.64132 102.00476 34919 ft 478 kts 169°
2026-04-29 14:55 6.57583 102.01682 34916 ft 478 kts 169°
2026-04-29 14:55 6.51031 102.02890 34918 ft 478 kts 169°
2026-04-29 14:56 6.44481 102.04096 34918 ft 478 kts 169°
2026-04-29 14:56 6.37936 102.05302 34919 ft 478 kts 169°
2026-04-29 14:57 6.31393 102.06505 34924 ft 478 kts 169°
2026-04-29 14:57 6.24881 102.07833 34928 ft 477 kts 162°
2026-04-29 14:58 6.18607 102.09896 34930 ft 476 kts 161°
2026-04-29 14:58 6.12320 102.11975 34930 ft 476 kts 161°
2026-04-29 14:59 6.06030 102.14048 34930 ft 475 kts 161°
2026-04-29 14:59 5.99737 102.16111 34933 ft 475 kts 161°
2026-04-29 15:00 5.93455 102.18170 34933 ft 475 kts 161°
2026-04-29 15:00 5.87180 102.20232 34934 ft 474 kts 161°
2026-04-29 15:01 5.80916 102.22290 34936 ft 473 kts 160°
2026-04-29 15:01 5.74664 102.24350 34935 ft 473 kts 160°
2026-04-29 15:02 5.68498 102.26642 34939 ft 472 kts 156°
2026-04-29 15:02 5.62434 102.29158 34939 ft 471 kts 156°
2026-04-29 15:03 5.56404 102.31658 34942 ft 472 kts 156°
2026-04-29 15:03 5.50310 102.34102 34943 ft 472 kts 157°
2026-04-29 15:04 5.44209 102.36518 34945 ft 471 kts 157°
2026-04-29 15:04 5.38115 102.38941 34953 ft 471 kts 156°
2026-04-29 15:05 5.32029 102.41377 34949 ft 471 kts 156°
2026-04-29 15:05 5.25934 102.43807 34944 ft 471 kts 156°
2026-04-29 15:06 5.19853 102.46230 34943 ft 471 kts 156°
2026-04-29 15:06 5.13763 102.48663 34940 ft 471 kts 156°
2026-04-29 15:07 5.07680 102.51103 34941 ft 471 kts 156°
2026-04-29 15:07 5.01592 102.53540 34939 ft 471 kts 156°
2026-04-29 15:08 4.95501 102.55962 34934 ft 471 kts 156°
2026-04-29 15:08 4.89408 102.58389 34938 ft 471 kts 156°
2026-04-29 15:09 4.83310 102.60827 34941 ft 471 kts 156°
2026-04-29 15:09 4.77249 102.63248 34944 ft 471 kts 156°
2026-04-29 15:10 4.71157 102.65673 34942 ft 471 kts 156°
2026-04-29 15:10 4.65064 102.68092 34944 ft 471 kts 156°
2026-04-29 15:11 4.58976 102.70522 34946 ft 471 kts 156°
2026-04-29 15:11 4.52887 102.72953 34949 ft 470 kts 156°
2026-04-29 15:12 4.46808 102.75369 34951 ft 470 kts 156°
2026-04-29 15:12 4.40731 102.77780 34949 ft 470 kts 156°
2026-04-29 15:13 4.34663 102.80191 34945 ft 469 kts 156°
2026-04-29 15:13 4.28597 102.82614 34946 ft 469 kts 156°
2026-04-29 15:14 4.22544 102.85029 34942 ft 468 kts 156°
2026-04-29 15:14 4.16495 102.87433 34937 ft 467 kts 156°
2026-04-29 15:15 4.10453 102.89838 34934 ft 467 kts 156°
2026-04-29 15:15 4.04416 102.92248 34931 ft 467 kts 156°